Hourly Data Report for October 13, 2006

ALERT CLIMATE
NUNAVUT

82°30'00.000" N
62°20'00.000" W
65.40 m
2400305
71355
ZLT

Download Data

Hourly Data (October 2006)
Hourly Data Report for October 13, 2006
TIME
LST
Temp Definition
°C
Dew Point Definition
°C
Rel Hum Definition
%
Precip. Amount Definition
mm

Wind Dir Definition
10's deg

Wind Spd Definition
km/h
Visibility Definition
km
Stn Press Definition
kPa
Hmdx Definition


Wind Chill Definition


Weather Definition


00:00 -9.0 -13.1 72   24 56   100.58   -21 LegendNANA
01:00 -9.0 -13.2 72   24 54   100.53   -21 LegendNANA
02:00 -9.2 -13.0 74   24 48   100.51   -20 LegendNANA
03:00 -9.0 -13.3 71   24 46   100.53   -20 LegendNANA
04:00 -9.1 -13.9 68   24 46   100.51   -20 LegendNANA
05:00 -9.8 -14.3 70   24 50   100.44   -21 LegendNANA
06:00 -9.7 -13.8 72   24 48   100.44   -21 LegendNANA
07:00 -9.6 -14.3 69   24 46   100.46   -21 LegendNANA
08:00 -9.9 -13.9 73   25 48   100.48   -21 LegendNANA
09:00 -9.8 -13.7 73   24 56   100.46   -22 LegendNANA
10:00 -10.0 -13.9 73   25 54   100.54   -22 LegendNANA
11:00 -10.2 -14.1 73   26 50   100.54   -22 LegendNANA
12:00 -10.2 -13.6 76   24 57   100.51   -23 LegendNANA
13:00 -10.1 -13.7 75   25 52   100.65   -22 LegendNANA
14:00 -9.6 -13.7 72   25 52   100.71   -21 LegendNANA
15:00 -9.7 -13.9 71   24 35   100.81   -20 LegendNANA
16:00 -10.3 -14.7 70   24 32   100.87   -20 LegendNANA
17:00 -10.3 -14.6 71   26 32   100.93   -20 LegendNANA
18:00 -9.8 -14.0 71   24 30   100.98   -19 LegendNANA
19:00 -10.3 -14.6 71   26 30   101.01   -20 LegendNANA
20:00 -9.7 -13.9 71   25 26   101.01   -19 LegendNANA
21:00 -9.2 -14.2 67   24 32   100.98   -19 LegendNANA
22:00 -9.3 -14.3 67   24 33   100.97   -19 LegendNANA
23:00 -9.4 -14.1 69   24 33   100.97   -19 LegendNANA

Notes on Data Quality.

Legend

  • E = Estimated
  • M = Missing
  • NA = Not Available*
  • [empty] = Indicates an unobserved value
Date modified: